Temperature
19 18 19 19 19 18 18 18 18 18 18 18 18 19 19 18 18 18 18 18 18 18 18 18 18 18 18 18 18 17 17 17 17 17 17 17 17 17 17 16 16 16 16
19 18 19 19 18 18 18 18 18 18 18 18 18 18 18 18 18 18 18 18 18 18 18 18 18 18 18 18 17 17 17 17 17 17 17 17 17 17 16 16 16 16 16
18 18 18 18 18 18 18 18 18 18 18 18 18 18 18 18 18 18 18 18 18 18 18 18 18 18 18 18 18 17 17 17 17 17 17 17 17 17 16 16 16 16 16
18 18 18 18 18 18 18 18 18 18 18 18 18 18 18 18 18 18 18 18 18 18 18 18 18 18 18 18 18 17 17 17 17 17 17 17 17 16 16 16 16 16 16
18 18 18 18 18 18 18 18 18 18 18 18 18 18 18 18 18 18 18 18 18 18 18 18 18 18 18 18 17 17 17 17 17 17 17 17 16 16 16 16 16 16 16
18 18 18 18 18 18 18 18 18 18 18 18 18 18 18 18 18 18 18 18 18 18 18 18 18 18 18 18 17 17 17 17 17 17 17 16 16 16 16 16 16 16 16
18 18 18 18 18 18 18 18 18 18 18 18 18 18 18 19 18 19 19 18 18 18 18 18 18 18 18 18 17 17 17 17 17 17 17 16 16 16 16 16 16 16 16
18 18 18 18 18 18 18 18 18 18 18 18 18 18 18 18 19 19 19 18 18 18 18 18 18 18 18 18 17 17 17 17 17 17 17 16 16 16 16 16 16 16 16
18 18 18 18 17 17 17 18 18 18 18 18 18 18 18 18 18 18 18 18 18 18 18 18 18 18 18 17 17 17 17 17 17 17 17 16 16 16 16 16 16 16 16
17 18 18 18 17 17 17 17 17 17 18 18 18 18 18 18 18 18 18 18 18 18 18 18 18 18 17 17 17 17 17 17 17 17 16 16 16 16 16 16 16 16 16
17 18 17 17 17 17 17 17 17 17 17 17 17 18 18 18 18 18 17 18 18 18 18 18 18 18 17 17 17 17 17 17 16 16 16 16 16 16 16 16 16 16 16
17 18 17 17 17 17 17 17 17 17 17 17 17 18 18 18 18 18 18 18 18 18 18 17 17 17 17 17 17 17 17 17 16 16 16 16 16 16 16 16 15 15 15
17 17 17 17 17 17 17 17 17 17 17 17 17 17 17 17 17 18 17 17 17 18 18 17 17 17 17 17 17 17 17 17 16 16 16 16 16 16 16 15 15 15 15
17 17 17 17 17 17 17 17 17 17 17 17 17 17 17 17 17 17 17 17 17 17 17 17 17 17 17 17 17 17 17 16 16 16 16 16 16 16 15 15 15 15 15
17 17 17 17 17 17 17 17 17 17 17 17 17 17 17 17 17 17 17 17 17 16 17 17 17 16 16 16 16 16 16 16 16 16 16 16 16 16 15 15 15 15 15
17 17 17 17 17 17 17 17 16 16 16 16 16 16 16 16 16 16 17 16 16 16 16 16 16 16 16 16 16 16 16 16 16 16 16 16 16 15 15 15 15 15 15
17 17 16 16 16 16 16 16 16 16 16 16 16 16 16 16 16 16 16 16 16 16 16 16 16 16 16 16 16 16 16 16 15 15 15 15 15 15 15 15 15 15 15
16 16 16 16 16 16 16 16 16 16 16 16 16 16 16 16 16 16 16 16 16 16 16 15 15 15 15 15 15 15 15 15 15 15 15 15 15 15 15 15 15 15 15
16 16 16 16 16 15 15 16 15 15 15 15 15 15 15 15 15 15 15 15 15 15 15 15 15 15 15 15 15 15 15 15 15 15 15 15 15 15 15 15 15 15 14
16 16 16 15 15 15 15 15 15 15 15 15 15 15 15 15 15 15 15 15 15 15 15 14 14 14 14 14 14 14 14 14 14 14 14 14 14 14 14 14 14 14 14
15 15 15 15 15 15 15 15 15 15 15 15 15 15 15 15 15 15 15 15 15 14 14 14 14 14 14 14 14 14 14 14 14 14 14 14 14 14 14 14 14 14 14
15 15 15 15 15 15 15 15 15 15 15 15 15 15 14 14 15 15 14 14 14 14 14 14 14 14 14 14 14 14 13 13 13 13 13 14 14 14 14 14 14 14 14
15 15 15 15 15 15 15 15 15 15 15 14 14 15 14 14 14 14 14 14 14 14 14 14 14 14 14 14 14 14 13 13 13 13 13 13 13 13 13 14 14 14 14
15 15 14 15 14 15 15 15 15 15 14 14 14 14 14 14 14 14 14 14 14 14 14 14 14 14 14 13 13 13 13 13 13 13 13 13 13 13 13 13 13 13 13
15 15 14 14 14 14 14 15 15 14 14 14 14 14 14 14 14 14 14 14 14 13 13 13 13 13 13 13 13 13 13 13 13 13 13 13 13 13 13 13 13 13 13
15 15 14 14 14 14 14 15 14 14 14 14 14 14 14 14 14 13 13 13 13 13 13 13 13 13 13 13 13 13 13 13 12 12 12 12 13 12 12 12 13 13 13
Wind_Speed
1 1 1 1 0 0 0 1 1 1 1 1 1 1 1 2 3 4 7 12 12 11 10 9 8 7 7 7 6 6 6 6 7 8 8 8 8 8 9 10 10 10 10
2 0 1 1 1 0 1 0 1 0 0 0 0 1 0 1 3 5 6 9 11 11 10 9 9 8 8 8 7 7 7 7 6 7 7 8 8 9 9 9 9 10 10
2 1 1 1 1 1 1 0 1 1 1 1 1 1 1 1 2 4 5 6 8 10 11 10 9 9 9 9 8 8 8 8 8 7 7 7 8 9 9 9 9 9 10
1 1 1 1 1 1 1 1 1 0 1 0 0 0 1 1 2 3 4 5 6 7 10 12 11 10 10 10 9 9 9 8 8 7 7 7 8 9 9 9 9 9 9
2 1 1 0 1 1 0 1 1 1 0 0 1 1 2 2 2 3 4 4 6 7 8 11 13 12 11 10 10 9 9 9 8 8 8 8 8 8 9 9 9 9 9
2 2 1 1 1 1 1 1 1 1 1 2 2 1 1 2 3 3 4 4 5 7 8 9 11 10 12 11 10 9 9 9 9 9 8 8 8 8 9 9 9 10 10
2 2 1 1 1 1 1 1 0 1 1 1 1 1 2 3 3 3 3 3 4 5 6 7 8 9 9 12 11 9 8 9 9 9 9 9 9 9 10 10 10 10 10
2 2 1 1 1 1 1 1 1 1 2 1 1 1 1 1 2 2 2 3 3 3 3 6 7 8 8 8 10 11 10 8 8 9 10 10 10 10 10 10 10 11 11
2 2 1 1 2 1 1 2 2 2 2 2 1 1 1 1 1 1 1 1 1 2 2 3 5 6 7 8 9 11 11 10 9 8 9 10 10 10 10 11 11 11 11
2 2 1 1 1 1 1 3 2 2 2 3 2 2 3 2 1 1 2 1 2 2 2 2 2 4 5 7 8 11 12 11 9 9 9 9 9 10 10 11 11 11 11
2 2 1 1 1 1 2 2 2 2 2 3 3 2 2 2 3 3 2 2 2 2 2 2 1 2 4 6 7 9 12 11 10 9 9 8 8 9 9 9 10 10 10
2 2 2 1 1 2 2 2 2 2 2 3 3 2 2 2 2 2 2 3 2 2 1 0 0 1 2 4 6 8 11 11 10 10 9 8 8 8 8 8 9 9 9
2 2 1 1 1 2 2 2 2 2 2 3 3 3 3 3 2 1 1 2 2 1 1 1 1 1 1 4 5 7 10 11 11 10 9 8 7 7 8 8 9 9 9
1 2 1 1 1 2 2 2 2 2 2 3 3 3 3 3 2 1 1 2 2 2 2 1 1 1 1 2 5 6 7 10 10 9 8 7 6 6 6 6 7 7 7
1 2 1 1 1 1 2 1 2 2 1 2 3 2 2 2 2 2 2 2 2 2 2 1 1 1 2 2 4 4 4 8 9 9 8 7 6 6 6 5 5 6 7
1 1 1 1 0 1 1 1 2 1 1 1 2 2 2 2 2 2 2 1 1 1 2 1 1 1 1 1 3 3 3 6 8 7 7 7 6 6 6 5 5 5 6
1 1 1 1 1 1 1 1 2 1 1 2 2 2 2 2 2 2 2 1 1 1 2 1 0 0 0 1 1 1 3 4 4 7 8 7 6 6 6 5 5 5 6
2 1 1 1 2 1 1 2 3 2 2 2 2 2 2 2 3 2 2 2 1 1 2 2 1 1 0 1 1 2 2 3 3 4 6 7 6 6 5 5 4 4 5
2 2 2 2 2 2 2 2 2 3 3 3 2 2 2 2 3 2 2 2 2 1 1 2 2 1 1 1 0 2 1 1 2 4 5 6 6 6 6 5 4 3 4
2 2 2 3 3 2 2 2 2 3 3 3 2 2 2 2 2 2 2 2 2 1 1 2 2 2 1 1 1 1 1 1 1 2 2 4 5 5 5 5 4 4 4
3 2 3 3 3 3 3 2 3 4 3 3 3 2 2 2 2 2 2 1 1 1 1 1 2 2 1 1 1 2 2 1 1 1 0 1 2 3 3 4 4 4 4
2 2 3 3 3 3 1 1 2 3 3 4 3 3 3 2 2 2 2 2 1 2 2 2 2 2 2 2 2 2 2 2 2 1 1 2 1 1 2 4 5 6 5
2 2 3 2 2 1 1 1 2 3 4 3 3 3 4 2 2 1 2 3 3 4 4 3 3 3 3 2 2 2 2 2 3 2 2 2 2 2 2 3 8 8 7
2 3 3 3 2 2 2 2 3 4 4 3 3 3 3 2 2 1 2 2 3 3 4 4 3 3 3 2 2 3 3 2 2 2 2 3 2 2 2 3 7 9 9
3 3 3 3 3 2 2 2 3 3 3 3 4 3 3 3 3 3 2 2 2 3 3 3 4 3 3 3 3 1 2 2 3 2 2 2 2 2 2 2 5 9 9
3 3 2 2 3 3 3 3 3 3 3 3 3 3 4 4 4 4 4 3 3 3 2 2 2 2 3 4 4 3 3 3 2 2 2 1 2 1 2 2 2 5 6
Wind_Direction
104 96 122 102 50 100 200 300 316 358 22 349 353 37 71 85 133 137 138 155 160 164 168 173 176 179 183 184 184 187 185 193 204 204 205 206 205 204 206 206 205 206 208
103 105 134 82 33 333 316 276 276 306 299 280 15 17 69 131 135 142 149 162 168 170 171 176 180 181 185 188 189 189 191 193 194 198 202 201 201 200 202 202 204 205 205
144 192 204 149 226 232 274 282 285 275 192 178 145 187 198 172 148 151 156 167 174 181 183 183 184 186 189 191 193 193 199 201 201 205 203 197 197 201 203 204 206 207 206
188 242 229 174 213 204 194 194 223 195 61 10 287 188 181 185 175 169 176 180 180 180 188 194 192 192 192 195 198 197 201 201 199 203 204 203 202 202 201 202 204 206 206
205 247 283 306 262 269 255 271 97 115 197 325 263 209 203 199 195 191 190 186 185 179 181 188 194 197 196 198 202 199 201 200 198 201 204 206 205 206 205 206 206 208 209
222 246 242 293 296 302 348 20 14 325 249 247 268 270 231 214 204 201 206 203 192 189 188 184 188 197 200 198 199 200 202 201 198 199 206 208 209 209 208 207 209 212 211
228 247 303 279 284 295 274 260 222 280 264 239 266 288 256 223 206 209 214 209 204 197 185 183 183 182 189 198 200 199 200 199 199 199 205 208 211 212 211 211 210 211 213
238 226 228 278 248 250 266 287 289 270 259 234 217 239 287 273 258 228 197 212 216 206 188 184 185 180 176 171 189 197 197 196 200 203 208 210 213 213 212 213 213 214 216
222 269 241 278 277 240 226 254 268 256 264 264 231 207 229 249 300 277 242 221 224 228 224 187 180 174 173 167 172 185 190 194 198 205 209 211 213 213 213 215 216 217 218
209 206 229 249 283 290 267 258 248 284 273 272 268 225 207 203 233 270 283 243 242 242 245 250 196 172 171 173 173 175 185 192 197 203 208 210 212 212 217 219 218 219 218
201 198 188 226 253 268 265 288 311 287 292 287 288 282 255 230 225 221 248 258 266 251 252 266 232 142 177 176 164 176 182 187 192 200 206 209 209 210 216 219 218 220 220
206 202 186 208 248 266 267 271 277 276 272 281 286 292 289 282 254 232 231 241 240 240 230 301 309 140 188 157 167 173 177 181 189 199 202 204 206 210 215 217 215 218 220
192 185 192 193 258 274 275 275 265 273 269 277 278 278 280 279 284 272 251 259 261 243 203 227 197 143 165 130 151 172 180 178 186 192 196 201 206 211 215 216 219 220 222
144 143 167 179 225 255 266 265 265 256 265 276 275 275 276 277 280 256 248 252 273 271 227 196 167 128 101 108 134 155 164 170 175 181 184 190 195 200 203 209 214 215 221
135 126 141 158 225 259 289 301 297 304 325 295 285 285 284 279 270 265 247 235 235 261 261 237 189 107 100 107 141 152 152 167 173 181 184 187 193 199 200 202 209 216 222
57 105 137 173 218 261 313 302 310 329 343 318 301 316 313 310 311 284 275 259 245 239 269 276 227 130 84 100 141 144 149 165 178 183 185 185 190 198 204 206 211 220 227
195 189 195 254 258 236 249 276 289 282 287 292 293 307 308 314 310 306 312 291 263 227 231 257 261 324 105 98 133 161 175 166 175 193 191 189 192 199 206 209 214 223 228
223 207 211 230 258 244 234 251 264 272 264 273 286 292 293 295 305 306 310 303 276 236 208 237 241 247 223 175 215 236 208 190 167 178 182 183 187 191 196 203 213 222 225
235 231 226 239 248 256 248 258 261 271 268 264 261 264 278 289 293 305 292 291 273 250 210 214 238 233 250 211 211 277 266 178 190 176 176 181 188 193 194 195 199 205 215
244 243 237 254 247 249 260 266 270 260 262 266 260 250 259 260 275 284 270 273 270 260 244 233 232 233 223 217 196 228 251 233 257 205 172 176 187 191 188 187 184 184 187
242 239 238 246 246 238 251 254 266 259 256 260 259 246 244 218 219 253 268 261 248 236 243 245 244 237 229 218 236 242 240 218 256 242 199 210 180 179 186 194 190 187 183
236 242 240 240 252 260 278 257 259 274 259 251 253 255 247 206 207 219 244 271 252 231 236 241 255 242 242 239 248 249 243 226 241 224 217 261 199 207 185 180 191 185 181
230 243 250 242 239 254 260 290 288 268 256 250 249 252 261 247 183 215 228 243 257 258 236 235 240 247 251 244 237 242 237 244 247 228 218 255 241 228 202 181 176 180 182
237 245 253 242 232 250 238 244 281 260 257 247 237 235 237 252 229 227 232 234 243 249 234 224 233 252 254 242 240 240 229 226 242 236 202 236 236 238 233 165 183 182 185
238 237 246 236 230 237 245 250 259 262 252 247 239 226 215 213 221 207 210 229 255 267 255 223 212 227 234 227 221 224 233 227 247 236 202 218 233 244 241 221 194 191 190
234 235 241 245 238 225 229 238 243 254 263 257 241 217 200 200 203 203 214 222 240 261 280 277 219 220 217 216 215 207 217 231 249 248 200 211 226 229 253 223 179 182 194
Height
1528 1529 1529 1529 1529 1529 1529 1529 1529 1530 1529 1529 1530 1531 1531 1532 1533 1533 1534 1535 1536 1537 1538 1539 1539 1540 1540 1541 1542 1542 1543 1544 1545 1546 1547 1548 1549 1550 1551 1553 1554 1555 1556
1528 1529 1529 1529 1529 1529 1529 1530 1530 1530 1530 1530 1530 1531 1531 1532 1533 1533 1534 1535 1536 1536 1537 1537 1538 1538 1539 1540 1540 1541 1541 1542 1543 1544 1545 1546 1547 1548 1550 1551 1552 1553 1554
1528 1528 1529 1529 1529 1530 1530 1530 1530 1530 1530 1530 1530 1531 1531 1532 1532 1533 1533 1534 1535 1535 1536 1536 1537 1537 1537 1538 1538 1539 1539 1540 1541 1542 1543 1544 1545 1546 1548 1549 1550 1551 1552
1527 1527 1528 1529 1529 1529 1530 1530 1530 1530 1530 1530 1530 1530 1531 1531 1532 1532 1532 1533 1534 1534 1535 1535 1536 1536 1536 1536 1537 1537 1538 1538 1539 1540 1541 1542 1543 1544 1545 1546 1547 1548 1550
1526 1527 1527 1528 1528 1529 1529 1529 1529 1529 1529 1529 1529 1530 1530 1530 1531 1531 1531 1532 1532 1533 1533 1534 1534 1534 1534 1535 1535 1535 1536 1537 1537 1538 1538 1539 1540 1541 1543 1543 1544 1546 1547
1525 1526 1526 1526 1527 1527 1527 1528 1528 1528 1528 1528 1529 1529 1529 1529 1530 1530 1530 1531 1531 1531 1532 1532 1532 1532 1533 1533 1533 1534 1534 1534 1535 1535 1536 1537 1538 1539 1540 1541 1542 1543 1544
1524 1525 1525 1525 1525 1526 1526 1526 1527 1527 1527 1528 1528 1528 1528 1528 1528 1528 1529 1529 1529 1530 1530 1530 1530 1530 1530 1531 1531 1532 1532 1532 1533 1533 1533 1534 1535 1536 1537 1538 1539 1540 1541
1523 1524 1524 1524 1524 1524 1525 1525 1525 1525 1526 1527 1527 1527 1527 1528 1527 1527 1527 1527 1527 1528 1529 1529 1528 1528 1528 1528 1529 1530 1530 1530 1530 1531 1531 1532 1532 1533 1534 1535 1536 1537 1538
1522 1522 1522 1522 1523 1523 1523 1523 1524 1524 1525 1525 1526 1527 1526 1525 1526 1526 1525 1525 1525 1526 1527 1527 1527 1527 1527 1526 1527 1527 1528 1528 1528 1528 1529 1529 1530 1530 1531 1532 1533 1534 1536
1520 1521 1521 1521 1521 1522 1522 1522 1522 1522 1523 1524 1524 1524 1525 1524 1524 1524 1524 1524 1524 1524 1525 1525 1526 1525 1525 1524 1525 1525 1526 1526 1526 1526 1526 1526 1527 1527 1528 1530 1530 1531 1533
1519 1519 1519 1519 1519 1520 1520 1520 1520 1521 1521 1521 1522 1522 1522 1522 1522 1522 1522 1522 1522 1523 1523 1523 1523 1523 1523 1523 1523 1522 1523 1524 1524 1524 1524 1524 1524 1525 1526 1527 1527 1528 1530
1517 1517 1517 1517 1518 1518 1518 1518 1518 1519 1519 1519 1519 1519 1519 1519 1520 1520 1519 1519 1520 1520 1521 1521 1521 1521 1521 1521 1521 1521 1521 1521 1521 1521 1522 1522 1522 1523 1523 1524 1525 1526 1527
1515 1515 1515 1515 1515 1515 1516 1516 1516 1516 1517 1517 1517 1517 1516 1517 1518 1518 1518 1518 1518 1518 1518 1518 1518 1518 1519 1519 1518 1518 1518 1518 1518 1519 1519 1519 1520 1520 1521 1522 1522 1523 1524
1513 1513 1513 1513 1513 1514 1514 1514 1514 1514 1514 1514 1514 1514 1514 1515 1515 1515 1516 1516 1516 1516 1516 1516 1516 1516 1516 1516 1516 1516 1515 1516 1516 1517 1517 1517 1518 1518 1519 1519 1520 1521 1521
1512 1511 1511 1511 1511 1511 1511 1511 1512 1512 1512 1511 1512 1512 1512 1512 1512 1513 1513 1513 1514 1513 1514 1514 1514 1515 1515 1514 1514 1514 1514 1513 1514 1514 1515 1515 1516 1516 1517 1517 1518 1518 1519
1509 1509 1509 1509 1509 1509 1509 1509 1509 1509 1509 1509 1509 1509 1509 1509 1509 1510 1510 1510 1511 1511 1511 1511 1512 1512 1513 1513 1512 1511 1511 1512 1513 1513 1513 1514 1514 1514 1514 1515 1515 1515 1516
1507 1507 1507 1507 1507 1507 1507 1507 1507 1507 1507 1507 1507 1507 1507 1507 1507 1507 1507 1508 1508 1509 1509 1509 1510 1510 1511 1511 1511 1510 1511 1511 1511 1512 1512 1512 1512 1512 1512 1512 1512 1513 1513
1504 1505 1505 1505 1505 1505 1505 1505 1504 1505 1504 1504 1504 1504 1504 1504 1504 1504 1505 1505 1505 1506 1506 1506 1507 1508 1508 1508 1508 1509 1509 1509 1509 1510 1510 1510 1510 1509 1509 1509 1509 1509 1510
1502 1502 1502 1503 1502 1502 1502 1502 1502 1502 1502 1502 1502 1501 1501 1501 1501 1502 1502 1502 1503 1503 1504 1504 1504 1505 1506 1506 1506 1506 1507 1507 1508 1508 1508 1508 1508 1507 1507 1507 1507 1507 1507
1499 1499 1499 1500 1500 1500 1499 1499 1499 1499 1499 1499 1499 1499 1499 1499 1499 1499 1499 1500 1500 1500 1501 1501 1502 1502 1503 1504 1504 1504 1504 1505 1506 1506 1506 1506 1505 1505 1505 1504 1504 1504 1504
1496 1496 1496 1496 1497 1496 1496 1496 1496 1496 1496 1496 1496 1496 1496 1496 1496 1497 1497 1497 1497 1497 1498 1498 1499 1500 1501 1501 1502 1502 1502 1503 1503 1504 1504 1504 1503 1502 1502 1502 1502 1502 1502
1494 1493 1493 1493 1494 1494 1494 1494 1494 1493 1493 1493 1493 1493 1493 1493 1493 1494 1495 1495 1495 1495 1495 1496 1496 1497 1498 1499 1499 1500 1500 1500 1500 1502 1501 1501 1501 1500 1500 1500 1500 1500 1499
1491 1491 1491 1491 1491 1491 1491 1491 1490 1490 1490 1490 1490 1490 1491 1491 1491 1491 1491 1492 1492 1493 1494 1494 1494 1495 1495 1496 1497 1497 1497 1498 1498 1498 1499 1498 1498 1498 1498 1497 1498 1498 1497
1489 1489 1489 1489 1488 1488 1488 1487 1487 1487 1487 1486 1487 1487 1487 1488 1488 1488 1489 1489 1489 1490 1491 1491 1492 1492 1493 1493 1494 1495 1495 1495 1495 1496 1496 1496 1496 1496 1496 1495 1496 1496 1495
1487 1487 1487 1486 1486 1485 1485 1484 1484 1484 1484 1484 1484 1484 1484 1484 1485 1486 1486 1486 1486 1487 1488 1489 1489 1490 1490 1491 1491 1492 1492 1492 1492 1493 1493 1493 1493 1493 1493 1493 1493 1493 1493
1485 1485 1485 1484 1483 1482 1482 1481 1481 1481 1480 1481 1481 1481 1482 1482 1482 1483 1483 1483 1483 1484 1485 1485 1486 1487 1487 1488 1488 1489 1489 1489 1489 1489 1489 1490 1490 1491 1491 1491 1491 1491 1491